^^
Datos históricos de la estación: Murcia-Puente Tocinos
Diario Informe para Noviembre 14, 2017 Unidades:  Métrico    Inglés   Ambas
« Anterior Día
Siguiente Día »
Diario Semanal Mensual Anual Configurable
  Máximo: Mínimo: Media:
Temperatura: 17.8 °C 8.5 °C 12.5 °C
Punto de rocio: 5.1 °C -5.7 °C -2.1 °C
Humedad: 63% 24% 38%
Velocidad viento: 14.8km/h 2.3km/h 7.2km/h
Racha viento: 29.6km/h - -
Viento- - SSO
Presión: 1019.9 hPa 1015.8 hPa -
Precipitación: 0.0 mm    
Historical Graphs
 
 
Tabla de datos para Noviembre 14, 2017
Hora Temperatura Punto de rocio Presión Viento Velocidad viento Racha viento Humedad Intensidad lluvia(por hora) Nubes
00:00 13.2 °C -4.5 °C 1016.1 hPa West 13.0 km/h 18.3 km/h 29% 0.0 mm CLR
00:05 13.1 °C -4.6 °C 1016.1 hPa WSW 13.0 km/h 16.7 km/h 29% 0.0 mm CLR
00:10 13.0 °C -4.7 °C 1016.1 hPa West 11.1 km/h 14.8 km/h 29% 0.0 mm CLR
00:15 12.9 °C -4.7 °C 1016.1 hPa West 11.1 km/h 18.5 km/h 29% 0.0 mm CLR
00:20 12.8 °C -5.3 °C 1016.1 hPa SW 10.3 km/h 22.2 km/h 28% 0.0 mm CLR
00:25 12.8 °C -5.3 °C 1016.1 hPa WSW 10.3 km/h 20.4 km/h 28% 0.0 mm CLR
00:30 12.7 °C -5.4 °C 1016.1 hPa West 13.0 km/h 25.9 km/h 28% 0.0 mm CLR
00:35 12.6 °C -5.4 °C 1016.1 hPa WNW 13.0 km/h 18.5 km/h 28% 0.0 mm CLR
00:40 12.5 °C -5.6 °C 1016.1 hPa WSW 13.0 km/h 22.2 km/h 28% 0.0 mm CLR
00:45 12.5 °C -5.6 °C 1016.1 hPa WNW 13.0 km/h 27.8 km/h 28% 0.0 mm CLR
00:51 12.4 °C -5.6 °C 1016.1 hPa WSW 14.8 km/h 19.8 km/h 28% 0.0 mm CLR
00:53 12.4 °C -5.6 °C 1016.1 hPa West 14.8 km/h 22.2 km/h 28% 0.0 mm CLR
00:58 12.3 °C -5.7 °C 1016.1 hPa SW 14.8 km/h 20.4 km/h 28% 0.0 mm CLR
01:03 12.3 °C -5.3 °C 1016.1 hPa WNW 13.0 km/h 18.5 km/h 29% 0.0 mm CLR
01:08 12.1 °C -5.4 °C 1016.5 hPa WNW 14.0 km/h 22.2 km/h 29% 0.0 mm CLR
01:13 12.1 °C -5.4 °C 1016.5 hPa SW 14.0 km/h 14.0 km/h 29% 0.0 mm CLR
01:18 11.9 °C -5.2 °C 1016.5 hPa WNW 12.2 km/h 20.4 km/h 30% 0.0 mm CLR
01:23 11.9 °C -5.2 °C 1016.1 hPa NW 12.2 km/h 22.2 km/h 30% 0.0 mm CLR
01:28 11.8 °C -5.2 °C 1016.1 hPa West 12.2 km/h 22.2 km/h 30% 0.0 mm CLR
01:33 11.8 °C -5.2 °C 1016.1 hPa WNW 14.8 km/h 22.2 km/h 30% 0.0 mm CLR
01:38 11.7 °C -5.3 °C 1016.1 hPa WNW 14.8 km/h 22.2 km/h 30% 0.0 mm CLR
01:43 11.6 °C -5.4 °C 1016.1 hPa WNW 14.8 km/h 18.5 km/h 30% 0.0 mm CLR
01:48 11.6 °C -5.4 °C 1016.1 hPa WSW 12.2 km/h 20.4 km/h 30% 0.0 mm CLR
01:53 11.6 °C -5.0 °C 1016.1 hPa WSW 12.2 km/h 20.4 km/h 31% 0.0 mm CLR
01:58 11.5 °C -5.1 °C 1016.1 hPa West 13.7 km/h 22.2 km/h 31% 0.0 mm CLR
02:03 11.4 °C -5.2 °C 1016.1 hPa WSW 13.7 km/h 14.8 km/h 31% 0.0 mm CLR
02:08 11.4 °C -5.2 °C 1016.1 hPa WSW 9.5 km/h 16.7 km/h 31% 0.0 mm CLR
02:13 11.4 °C -5.2 °C 1016.1 hPa WSW 9.5 km/h 13.0 km/h 31% 0.0 mm CLR
02:18 11.4 °C -5.2 °C 1016.1 hPa WSW 9.5 km/h 16.4 km/h 31% 0.0 mm CLR
02:23 11.3 °C -4.8 °C 1015.8 hPa WSW 9.5 km/h 18.5 km/h 32% 0.0 mm CLR
02:28 11.3 °C -4.8 °C 1015.8 hPa SSW 9.5 km/h 14.8 km/h 32% 0.0 mm CLR
02:33 11.2 °C -4.9 °C 1015.8 hPa WSW 9.5 km/h 15.6 km/h 32% 0.0 mm CLR
02:38 11.2 °C -4.5 °C 1016.1 hPa West 9.5 km/h 11.1 km/h 33% 0.0 mm CLR
02:43 11.1 °C -4.6 °C 1016.1 hPa SW 9.5 km/h 22.2 km/h 33% 0.0 mm CLR
02:48 11.0 °C -4.7 °C 1016.1 hPa West 10.3 km/h 14.8 km/h 33% 0.0 mm CLR
02:53 11.0 °C -4.7 °C 1016.1 hPa West 10.3 km/h 16.7 km/h 33% 0.0 mm CLR
02:58 10.9 °C -4.4 °C 1016.1 hPa WSW 10.3 km/h 14.0 km/h 34% 0.0 mm CLR
03:03 10.9 °C -4.4 °C 1016.1 hPa SW 10.3 km/h 14.8 km/h 34% 0.0 mm CLR
03:08 10.9 °C -4.4 °C 1016.1 hPa West 8.7 km/h 13.0 km/h 34% 0.0 mm CLR
03:13 10.8 °C -4.4 °C 1016.1 hPa SW 8.7 km/h 16.7 km/h 34% 0.0 mm CLR
03:18 10.8 °C -4.4 °C 1016.1 hPa SW 10.3 km/h 14.8 km/h 34% 0.0 mm CLR
03:23 10.8 °C -4.4 °C 1016.1 hPa SW 10.3 km/h 11.1 km/h 34% 0.0 mm CLR
03:28 10.8 °C -4.4 °C 1016.1 hPa SW 8.7 km/h 11.1 km/h 34% 0.0 mm CLR
03:33 10.8 °C -4.4 °C 1016.1 hPa SW 8.7 km/h 13.0 km/h 34% 0.0 mm CLR
03:38 10.7 °C -4.6 °C 1016.1 hPa SSE 7.6 km/h 9.3 km/h 34% 0.0 mm CLR
03:43 10.7 °C -4.2 °C 1016.1 hPa SW 7.6 km/h 20.4 km/h 35% 0.0 mm CLR
03:48 10.6 °C -4.3 °C 1016.1 hPa SW 8.7 km/h 9.5 km/h 35% 0.0 mm CLR
03:53 10.6 °C -4.3 °C 1015.8 hPa WSW 8.7 km/h 29.6 km/h 35% 0.0 mm CLR
03:58 10.6 °C -4.3 °C 1015.8 hPa SW 10.3 km/h 13.0 km/h 35% 0.0 mm CLR
04:03 10.5 °C -4.3 °C 1015.8 hPa SW 10.3 km/h 10.3 km/h 35% 0.0 mm CLR
04:08 10.4 °C -4.1 °C 1016.1 hPa SW 6.9 km/h 13.0 km/h 36% 0.0 mm CLR
04:14 10.3 °C -4.2 °C 1016.1 hPa SW 6.9 km/h 13.0 km/h 36% 0.0 mm CLR
04:19 10.2 °C -4.2 °C 1016.1 hPa WSW 7.6 km/h 16.4 km/h 36% 0.0 mm CLR
04:21 10.2 °C -4.2 °C 1016.1 hPa SW 7.6 km/h 16.7 km/h 36% 0.0 mm CLR
04:22 10.2 °C -4.2 °C 1016.1 hPa SW 7.6 km/h 16.7 km/h 36% 0.0 mm CLR
04:27 10.2 °C -3.9 °C 1016.1 hPa SSW 7.6 km/h 17.2 km/h 37% 0.0 mm CLR
04:32 10.2 °C -3.9 °C 1016.1 hPa SW 10.0 km/h 20.4 km/h 37% 0.0 mm CLR
04:37 10.2 °C -4.2 °C 1016.1 hPa SW 10.0 km/h 18.5 km/h 36% 0.0 mm CLR
04:42 10.2 °C -3.9 °C 1016.1 hPa WSW 11.9 km/h 14.8 km/h 37% 0.0 mm CLR
04:47 10.1 °C -3.9 °C 1016.1 hPa SSW 11.9 km/h 11.9 km/h 37% 0.0 mm CLR
04:52 10.0 °C -4.4 °C 1016.1 hPa SW 9.5 km/h 13.0 km/h 36% 0.0 mm CLR
04:57 10.0 °C -4.1 °C 1016.1 hPa SW 9.5 km/h 14.8 km/h 37% 0.0 mm CLR
05:02 9.9 °C -4.1 °C 1016.1 hPa SW 7.6 km/h 11.1 km/h 37% 0.0 mm CLR
05:07 9.9 °C -4.1 °C 1016.5 hPa SW 7.6 km/h 9.3 km/h 37% 0.0 mm CLR
05:12 9.9 °C -4.1 °C 1016.5 hPa West 7.6 km/h 14.8 km/h 37% 0.0 mm CLR
05:17 9.8 °C -3.9 °C 1016.5 hPa WSW 7.6 km/h 9.3 km/h 38% 0.0 mm CLR
05:22 9.8 °C -3.9 °C 1016.5 hPa SSW 7.6 km/h 14.8 km/h 38% 0.0 mm CLR
05:27 9.8 °C -3.9 °C 1016.5 hPa WSW 7.6 km/h 9.3 km/h 38% 0.0 mm CLR
05:32 9.8 °C -3.9 °C 1016.5 hPa WSW 6.9 km/h 16.7 km/h 38% 0.0 mm CLR
05:37 9.7 °C -3.9 °C 1016.5 hPa WSW 6.9 km/h 13.0 km/h 38% 0.0 mm CLR
05:42 9.7 °C -3.9 °C 1016.5 hPa SSE 8.4 km/h 11.1 km/h 38% 0.0 mm CLR
05:47 9.7 °C -3.9 °C 1016.5 hPa SW 8.4 km/h 14.8 km/h 38% 0.0 mm CLR
05:52 9.7 °C -3.9 °C 1016.5 hPa WSW 7.6 km/h 9.3 km/h 38% 0.0 mm CLR
05:57 9.6 °C -3.7 °C 1016.5 hPa SW 7.6 km/h 11.1 km/h 39% 0.0 mm CLR
06:02 9.6 °C -3.7 °C 1016.5 hPa SW 7.6 km/h 16.7 km/h 39% 0.0 mm CLR
06:07 9.6 °C -3.7 °C 1016.5 hPa SW 7.6 km/h 11.1 km/h 39% 0.0 mm CLR
06:12 9.6 °C -3.7 °C 1016.5 hPa SW 9.5 km/h 9.5 km/h 39% 0.0 mm CLR
06:17 9.5 °C -3.8 °C 1016.5 hPa SSW 9.5 km/h 9.5 km/h 39% 0.0 mm CLR
06:22 9.4 °C -3.9 °C 1016.5 hPa SSW 6.4 km/h 9.3 km/h 39% 0.0 mm CLR
06:27 9.4 °C -3.9 °C 1016.5 hPa South 6.4 km/h 14.8 km/h 39% 0.0 mm CLR
06:32 9.4 °C -3.9 °C 1016.5 hPa WSW 6.9 km/h 14.8 km/h 39% 0.0 mm CLR
06:37 9.4 °C -3.9 °C 1016.8 hPa SSW 6.9 km/h 11.1 km/h 39% 0.0 mm CLR
06:42 9.2 °C -3.7 °C 1016.8 hPa SSW 8.4 km/h 14.8 km/h 40% 0.0 mm CLR
06:47 9.2 °C -3.7 °C 1016.8 hPa SSW 8.4 km/h 14.8 km/h 40% 0.0 mm CLR
06:52 9.2 °C -4.1 °C 1016.8 hPa SSW 10.3 km/h 14.8 km/h 39% 0.0 mm CLR
06:57 9.2 °C -4.1 °C 1016.8 hPa South 10.3 km/h 13.0 km/h 39% 0.0 mm CLR
07:02 9.1 °C -3.8 °C 1016.8 hPa SW 10.3 km/h 13.0 km/h 40% 0.0 mm CLR
07:07 9.0 °C -3.9 °C 1016.8 hPa SSW 10.3 km/h 10.3 km/h 40% 0.0 mm CLR
07:12 9.0 °C -3.9 °C 1016.8 hPa South 9.5 km/h 11.1 km/h 40% 0.0 mm CLR
07:17 8.9 °C -4.0 °C 1016.8 hPa SSW 9.5 km/h 9.5 km/h 40% 0.0 mm CLR
07:22 8.9 °C -4.0 °C 1017.2 hPa SSW 6.9 km/h 13.0 km/h 40% 0.0 mm CLR
07:27 8.8 °C -4.1 °C 1017.2 hPa SSW 6.9 km/h 11.9 km/h 40% 0.0 mm CLR
07:32 8.8 °C -3.8 °C 1017.2 hPa SW 9.5 km/h 13.0 km/h 41% 0.0 mm CLR
07:37 8.8 °C -3.8 °C 1017.2 hPa SW 9.5 km/h 11.1 km/h 41% 0.0 mm CLR
07:42 8.8 °C -3.8 °C 1017.2 hPa SSW 8.4 km/h 11.1 km/h 41% 0.0 mm CLR
07:47 8.8 °C -3.8 °C 1017.2 hPa SSE 8.4 km/h 13.0 km/h 41% 0.0 mm CLR
07:52 8.7 °C -3.5 °C 1017.5 hPa South 8.4 km/h 9.3 km/h 42% 0.0 mm CLR
07:57 8.6 °C -3.6 °C 1017.5 hPa SSW 8.4 km/h 13.0 km/h 42% 0.0 mm CLR
08:02 8.5 °C -3.7 °C 1017.5 hPa SSW 7.6 km/h 13.7 km/h 42% 0.0 mm CLR
08:07 8.5 °C -3.7 °C 1017.8 hPa South 7.6 km/h 13.0 km/h 42% 0.0 mm CLR
08:12 8.6 °C -3.6 °C 1017.8 hPa SSE 8.7 km/h 13.0 km/h 42% 0.0 mm CLR
08:17 8.7 °C -3.5 °C 1017.8 hPa SSW 8.7 km/h 9.3 km/h 42% 0.0 mm CLR
08:22 8.8 °C -3.8 °C 1017.8 hPa SSW 8.7 km/h 13.0 km/h 41% 0.0 mm CLR
08:27 8.9 °C -3.7 °C 1017.8 hPa South 8.7 km/h 12.2 km/h 41% 0.0 mm CLR
08:32 9.1 °C -3.5 °C 1017.8 hPa SSW 9.5 km/h 13.0 km/h 41% 0.0 mm CLR
08:37 9.2 °C -3.7 °C 1017.8 hPa SW 9.5 km/h 14.8 km/h 40% 0.0 mm CLR
08:42 9.4 °C -3.6 °C 1017.8 hPa South 9.5 km/h 14.8 km/h 40% 0.0 mm CLR
08:47 9.5 °C -3.4 °C 1017.8 hPa SSW 9.5 km/h 11.1 km/h 40% 0.0 mm CLR
08:52 9.6 °C -3.7 °C 1018.2 hPa SSW 8.4 km/h 14.8 km/h 39% 0.0 mm CLR
08:57 9.8 °C -3.9 °C 1018.2 hPa WSW 8.4 km/h 13.0 km/h 38% 0.0 mm CLR
09:02 9.9 °C -3.4 °C 1018.2 hPa SSW 8.4 km/h 11.1 km/h 39% 0.0 mm CLR
09:07 10.1 °C -3.6 °C 1018.2 hPa SSW 8.4 km/h 10.0 km/h 38% 0.0 mm CLR
09:12 10.2 °C -3.5 °C 1018.2 hPa South 7.6 km/h 13.0 km/h 38% 0.0 mm CLR
09:17 10.3 °C -3.4 °C 1018.2 hPa SSW 7.6 km/h 16.7 km/h 38% 0.0 mm
09:22 10.3 °C -3.4 °C 1018.2 hPa WSW 8.7 km/h 13.0 km/h 38% 0.0 mm
09:24 10.3 °C -3.8 °C 1018.2 hPa SSW 8.7 km/h 14.8 km/h 37% 0.0 mm
09:29 10.4 °C -3.7 °C 1018.2 hPa South 10.0 km/h 16.7 km/h 37% 0.0 mm
09:34 10.5 °C -3.6 °C 1018.2 hPa SW 10.0 km/h 13.0 km/h 37% 0.0 mm
09:39 10.6 °C -3.5 °C 1018.2 hPa SW 8.7 km/h 14.8 km/h 37% 0.0 mm
09:44 10.7 °C -3.4 °C 1018.2 hPa South 8.7 km/h 14.8 km/h 37% 0.0 mm
09:49 10.8 °C -3.3 °C 1018.2 hPa SSW 10.0 km/h 14.8 km/h 37% 0.0 mm
09:54 10.9 °C -2.9 °C 1018.2 hPa SSE 10.0 km/h 11.1 km/h 38% 0.0 mm
09:59 11.2 °C -3.3 °C 1018.2 hPa SSE 7.6 km/h 13.0 km/h 36% 0.0 mm
10:04 11.3 °C -3.3 °C 1018.2 hPa South 7.6 km/h 11.1 km/h 36% 0.0 mm
10:09 11.4 °C -3.6 °C 1018.2 hPa SSW 8.4 km/h 14.8 km/h 35% 0.0 mm FEW
10:14 11.4 °C -3.6 °C 1018.2 hPa SSW 8.4 km/h 14.8 km/h 35% 0.0 mm
10:19 11.4 °C -3.9 °C 1018.2 hPa SW 9.5 km/h 13.0 km/h 34% 0.0 mm
10:23 11.6 °C -3.4 °C 1018.2 hPa SSW 9.5 km/h 11.1 km/h 35% 0.0 mm FEW
10:28 11.7 °C -3.7 °C 1018.2 hPa SW 8.7 km/h 14.8 km/h 34% 0.0 mm
10:33 11.7 °C -3.7 °C 1018.2 hPa WSW 8.7 km/h 11.1 km/h 34% 0.0 mm
10:39 11.8 °C -3.6 °C 1018.2 hPa SW 8.4 km/h 14.8 km/h 34% 0.0 mm
10:44 12.0 °C -3.4 °C 1018.2 hPa SSW 8.4 km/h 13.0 km/h 34% 0.0 mm
10:48 12.3 °C -3.6 °C 1018.2 hPa SSW 6.9 km/h 9.3 km/h 33% 0.0 mm
10:54 12.4 °C -3.8 °C 1018.2 hPa NW 6.9 km/h 18.5 km/h 32% 0.0 mm
10:59 12.3 °C -3.9 °C 1018.2 hPa WSW 8.4 km/h 11.1 km/h 32% 0.0 mm
11:04 12.4 °C -3.8 °C 1018.2 hPa NW 8.4 km/h 11.1 km/h 32% 0.0 mm
11:09 12.4 °C -4.3 °C 1018.2 hPa SW 6.9 km/h 13.0 km/h 31% 0.0 mm
11:14 12.4 °C -3.8 °C 1018.2 hPa SW 6.9 km/h 9.3 km/h 32% 0.0 mm
11:19 12.7 °C -4.0 °C 1018.2 hPa WSW 8.7 km/h 18.5 km/h 31% 0.0 mm CLR
11:24 12.7 °C -3.6 °C 1018.2 hPa West 8.7 km/h 13.0 km/h 32% 0.0 mm CLR
11:29 13.0 °C -3.8 °C 1018.2 hPa SW 8.7 km/h 18.5 km/h 31% 0.0 mm CLR
11:34 13.1 °C -3.7 °C 1018.2 hPa SSW 8.7 km/h 11.1 km/h 31% 0.0 mm CLR
11:39 13.2 °C -3.6 °C 1018.2 hPa WSW 8.7 km/h 9.3 km/h 31% 0.0 mm CLR
11:44 13.4 °C -3.8 °C 1018.2 hPa SSW 8.7 km/h 11.1 km/h 30% 0.0 mm CLR
11:49 13.5 °C -4.2 °C 1018.2 hPa WSW 6.9 km/h 14.8 km/h 29% 0.0 mm CLR
11:54 13.5 °C -4.2 °C 1018.2 hPa SW 6.9 km/h 14.8 km/h 29% 0.0 mm CLR
11:59 13.5 °C -4.2 °C 1018.2 hPa West 8.7 km/h 13.0 km/h 29% 0.0 mm CLR
12:04 13.5 °C -4.2 °C 1018.2 hPa West 8.7 km/h 11.1 km/h 29% 0.0 mm CLR
12:09 13.7 °C -4.1 °C 1017.8 hPa WSW 8.4 km/h 13.0 km/h 29% 0.0 mm CLR
12:14 13.8 °C -3.9 °C 1017.8 hPa WSW 8.4 km/h 11.1 km/h 29% 0.0 mm CLR
12:19 13.9 °C -3.9 °C 1017.8 hPa SW 7.6 km/h 11.1 km/h 29% 0.0 mm CLR
12:24 14.2 °C -4.1 °C 1017.8 hPa SW 7.6 km/h 13.0 km/h 28% 0.0 mm CLR
12:29 14.3 °C -4.0 °C 1017.8 hPa West 6.9 km/h 8.7 km/h 28% 0.0 mm CLR
12:34 14.4 °C -3.4 °C 1017.8 hPa SW 6.9 km/h 13.0 km/h 29% 0.0 mm CLR
12:39 14.3 °C -4.0 °C 1017.5 hPa SE 6.4 km/h 7.4 km/h 28% 0.0 mm CLR
12:44 14.6 °C -3.7 °C 1017.5 hPa SSW 6.4 km/h 9.3 km/h 28% 0.0 mm CLR
12:49 14.9 °C -3.5 °C 1017.5 hPa WSW 4.7 km/h 11.1 km/h 28% 0.0 mm CLR
12:54 14.9 °C -3.5 °C 1017.5 hPa SSE 4.7 km/h 9.3 km/h 28% 0.0 mm CLR
12:59 14.9 °C -3.9 °C 1017.5 hPa South 6.4 km/h 9.3 km/h 27% 0.0 mm CLR
13:04 15.1 °C -3.8 °C 1017.5 hPa West 6.4 km/h 11.1 km/h 27% 0.0 mm CLR
13:09 15.0 °C -3.9 °C 1017.2 hPa SW 5.0 km/h 9.3 km/h 27% 0.0 mm CLR
13:14 15.1 °C -3.8 °C 1017.2 hPa SSW 5.0 km/h 9.3 km/h 27% 0.0 mm CLR
13:19 15.3 °C -3.6 °C 1017.2 hPa South 4.7 km/h 7.6 km/h 27% 0.0 mm
13:24 15.4 °C -3.6 °C 1016.8 hPa WNW 4.7 km/h 9.3 km/h 27% 0.0 mm
13:29 15.6 °C -3.3 °C 1016.8 hPa SSW 5.8 km/h 7.4 km/h 27% 0.0 mm
13:34 15.7 °C -3.8 °C 1016.8 hPa East 5.8 km/h 7.4 km/h 26% 0.0 mm
13:39 15.8 °C -3.7 °C 1016.8 hPa NNW 4.7 km/h 7.4 km/h 26% 0.0 mm
13:44 15.9 °C -3.6 °C 1016.8 hPa NE 4.7 km/h 5.8 km/h 26% 0.0 mm
13:49 15.9 °C -3.6 °C 1016.8 hPa SSE 4.7 km/h 5.8 km/h 26% 0.0 mm
13:54 16.1 °C -3.4 °C 1016.8 hPa South 4.7 km/h 4.7 km/h 26% 0.0 mm
13:59 16.2 °C -3.3 °C 1016.8 hPa SSE 3.9 km/h 9.3 km/h 26% 0.0 mm
14:04 16.4 °C -3.7 °C 1016.8 hPa SE 3.9 km/h 7.4 km/h 25% 0.0 mm
14:09 16.3 °C -3.3 °C 1016.8 hPa South 4.7 km/h 5.6 km/h 26% 0.0 mm
14:14 16.3 °C -3.3 °C 1016.8 hPa WSW 4.7 km/h 7.4 km/h 26% 0.0 mm
14:19 16.2 °C -3.3 °C 1016.8 hPa WSW 5.8 km/h 9.3 km/h 26% 0.0 mm
14:24 16.1 °C -3.4 °C 1016.5 hPa SW 5.8 km/h 11.1 km/h 26% 0.0 mm
14:29 16.0 °C -3.5 °C 1016.5 hPa WSW 6.9 km/h 13.0 km/h 26% 0.0 mm
14:34 15.9 °C -4.1 °C 1016.5 hPa West 6.9 km/h 13.0 km/h 25% 0.0 mm
14:39 16.1 °C -3.4 °C 1016.5 hPa West 6.9 km/h 7.4 km/h 26% 0.0 mm
14:44 16.2 °C -3.9 °C 1016.5 hPa SSW 6.9 km/h 11.1 km/h 25% 0.0 mm
14:49 16.1 °C -3.9 °C 1016.5 hPa SW 6.4 km/h 7.4 km/h 25% 0.0 mm
14:54 16.3 °C -3.3 °C 1016.1 hPa SSW 6.4 km/h 7.4 km/h 26% 0.0 mm
14:55 16.3 °C -3.8 °C 1016.1 hPa WSW 6.4 km/h 7.4 km/h 25% 0.0 mm
15:00 16.6 °C -3.6 °C 1016.1 hPa WNW 4.7 km/h 9.3 km/h 25% 0.0 mm
15:05 16.7 °C -3.4 °C 1016.1 hPa East 4.7 km/h 7.4 km/h 25% 0.0 mm
15:10 16.8 °C -2.8 °C 1016.1 hPa SSE 4.7 km/h 9.3 km/h 26% 0.0 mm
15:15 16.9 °C -3.3 °C 1016.1 hPa SE 4.7 km/h 4.7 km/h 25% 0.0 mm
15:20 17.0 °C -3.2 °C 1016.1 hPa West 4.7 km/h 7.6 km/h 25% 0.0 mm
15:25 17.1 °C -3.1 °C 1016.1 hPa West 4.7 km/h 10.0 km/h 25% 0.0 mm
15:30 17.1 °C -3.1 °C 1016.1 hPa NNW 5.0 km/h 5.6 km/h 25% 0.0 mm
15:35 17.1 °C -3.7 °C 1016.1 hPa WSW 5.0 km/h 11.1 km/h 24% 0.0 mm FEW
15:40 17.1 °C -3.1 °C 1015.8 hPa SW 5.0 km/h 7.4 km/h 25% 0.0 mm FEW
15:45 17.1 °C -3.1 °C 1015.8 hPa South 5.0 km/h 9.3 km/h 25% 0.0 mm
15:50 17.0 °C -3.2 °C 1015.8 hPa South 5.8 km/h 5.8 km/h 25% 0.0 mm FEW
15:55 17.2 °C -3.0 °C 1015.8 hPa NW 5.8 km/h 5.8 km/h 25% 0.0 mm
16:00 17.3 °C -2.9 °C 1015.8 hPa SSE 2.9 km/h 7.4 km/h 25% 0.0 mm FEW
16:05 17.3 °C -2.9 °C 1015.8 hPa WNW 2.9 km/h 6.4 km/h 25% 0.0 mm
16:10 17.5 °C -2.8 °C 1015.8 hPa South 3.2 km/h 7.4 km/h 25% 0.0 mm FEW
16:15 17.6 °C -2.7 °C 1015.8 hPa SSW 3.2 km/h 5.6 km/h 25% 0.0 mm
16:20 17.7 °C -2.6 °C 1015.8 hPa WSW 3.9 km/h 5.6 km/h 25% 0.0 mm CLR
16:25 17.8 °C -2.5 °C 1015.8 hPa East 3.9 km/h 5.6 km/h 25% 0.0 mm CLR
16:30 17.7 °C -2.6 °C 1015.8 hPa ENE 2.9 km/h 7.4 km/h 25% 0.0 mm CLR
16:35 17.5 °C -2.8 °C 1015.8 hPa NNE 2.9 km/h 7.6 km/h 25% 0.0 mm CLR
16:40 17.2 °C -2.5 °C 1016.1 hPa NNE 4.7 km/h 7.4 km/h 26% 0.0 mm CLR
16:45 17.1 °C -2.6 °C 1016.1 hPa NNE 4.7 km/h 7.4 km/h 26% 0.0 mm CLR
16:50 16.9 °C -2.8 °C 1016.1 hPa NNE 5.0 km/h 7.4 km/h 26% 0.0 mm CLR
16:55 16.9 °C -2.8 °C 1016.1 hPa NE 5.0 km/h 7.4 km/h 26% 0.0 mm CLR
17:00 16.9 °C -2.2 °C 1016.1 hPa NE 5.0 km/h 7.4 km/h 27% 0.0 mm CLR
17:05 16.8 °C -1.8 °C 1016.1 hPa NE 5.0 km/h 8.4 km/h 28% 0.0 mm CLR
17:10 16.7 °C -1.9 °C 1016.1 hPa NNE 5.8 km/h 7.4 km/h 28% 0.0 mm CLR
17:15 16.7 °C -1.9 °C 1016.1 hPa NNE 5.8 km/h 7.4 km/h 28% 0.0 mm CLR
17:20 16.7 °C -1.4 °C 1016.1 hPa NNE 4.7 km/h 7.4 km/h 29% 0.0 mm CLR
17:25 16.6 °C -1.6 °C 1016.1 hPa NE 4.7 km/h 5.6 km/h 29% 0.0 mm CLR
17:30 16.6 °C -2.0 °C 1016.1 hPa NE 4.7 km/h 5.6 km/h 28% 0.0 mm CLR
17:35 16.5 °C -2.1 °C 1016.1 hPa NNE 4.7 km/h 5.6 km/h 28% 0.0 mm CLR
17:40 16.4 °C -1.7 °C 1016.1 hPa NE 3.9 km/h 5.6 km/h 29% 0.0 mm CLR
17:45 16.4 °C -1.7 °C 1016.1 hPa NE 3.9 km/h 3.9 km/h 29% 0.0 mm CLR
17:50 16.3 °C -1.3 °C 1016.1 hPa NE 3.2 km/h 5.6 km/h 30% 0.0 mm CLR
17:55 16.2 °C -1.4 °C 1016.5 hPa NE 3.2 km/h 7.4 km/h 30% 0.0 mm CLR
18:00 16.1 °C -1.1 °C 1016.5 hPa NE 4.7 km/h 5.6 km/h 31% 0.0 mm CLR
18:05 15.9 °C -0.8 °C 1016.5 hPa NE 4.7 km/h 7.4 km/h 32% 0.0 mm CLR
18:10 15.8 °C -0.9 °C 1016.8 hPa ENE 5.0 km/h 7.4 km/h 32% 0.0 mm CLR
18:15 15.7 °C -0.9 °C 1016.8 hPa NNE 5.0 km/h 7.4 km/h 32% 0.0 mm CLR
18:20 15.6 °C -1.1 °C 1016.8 hPa NNE 5.0 km/h 7.4 km/h 32% 0.0 mm CLR
18:25 15.4 °C -0.4 °C 1016.8 hPa ENE 5.0 km/h 11.1 km/h 34% 0.0 mm CLR
18:30 15.1 °C 1.2 °C 1016.8 hPa ESE 6.9 km/h 14.8 km/h 39% 0.0 mm CLR
18:35 14.7 °C 1.6 °C 1016.8 hPa SE 6.9 km/h 9.3 km/h 41% 0.0 mm CLR
18:40 14.5 °C 1.7 °C 1016.8 hPa ESE 6.9 km/h 9.3 km/h 42% 0.0 mm CLR
18:45 14.3 °C 2.2 °C 1016.8 hPa SE 6.9 km/h 9.3 km/h 44% 0.0 mm CLR
18:51 14.2 °C 2.7 °C 1016.8 hPa East 6.4 km/h 11.1 km/h 46% 0.0 mm CLR
18:55 14.0 °C 2.8 °C 1017.2 hPa ESE 6.4 km/h 6.4 km/h 47% 0.0 mm CLR
19:01 13.9 °C 3.1 °C 1017.2 hPa ESE 5.8 km/h 7.4 km/h 48% 0.0 mm CLR
19:06 13.9 °C 3.3 °C 1017.2 hPa East 5.8 km/h 7.6 km/h 49% 0.0 mm CLR
19:11 13.8 °C 3.6 °C 1017.5 hPa East 5.8 km/h 7.4 km/h 50% 0.0 mm CLR
19:16 13.7 °C 3.7 °C 1017.5 hPa East 5.8 km/h 7.4 km/h 51% 0.0 mm CLR
19:21 13.6 °C 3.9 °C 1017.5 hPa East 5.0 km/h 7.4 km/h 52% 0.0 mm CLR
19:26 13.5 °C 3.8 °C 1017.5 hPa NNE 5.0 km/h 9.3 km/h 52% 0.0 mm CLR
19:31 13.3 °C 3.9 °C 1017.5 hPa NNE 5.8 km/h 7.4 km/h 53% 0.0 mm CLR
19:36 13.2 °C 4.1 °C 1017.5 hPa North 5.8 km/h 9.3 km/h 54% 0.0 mm CLR
19:41 12.9 °C 4.1 °C 1017.8 hPa North 5.0 km/h 9.3 km/h 55% 0.0 mm CLR
19:46 12.7 °C 4.2 °C 1017.8 hPa North 5.0 km/h 11.1 km/h 56% 0.0 mm CLR
19:51 12.3 °C 4.3 °C 1017.8 hPa NNE 5.8 km/h 8.7 km/h 58% 0.0 mm CLR
19:56 12.2 °C 4.4 °C 1018.2 hPa North 5.8 km/h 7.4 km/h 59% 0.0 mm CLR
20:01 12.1 °C 4.6 °C 1018.2 hPa NNE 5.8 km/h 5.8 km/h 60% 0.0 mm CLR
20:06 12.1 °C 4.6 °C 1018.2 hPa NNE 5.8 km/h 7.4 km/h 60% 0.0 mm CLR
20:11 12.0 °C 4.4 °C 1018.2 hPa NNE 4.7 km/h 7.6 km/h 60% 0.0 mm CLR
20:16 12.0 °C 4.7 °C 1018.2 hPa NNE 4.7 km/h 9.3 km/h 61% 0.0 mm CLR
20:21 12.0 °C 4.7 °C 1018.2 hPa NNE 6.4 km/h 7.4 km/h 61% 0.0 mm CLR
20:26 12.0 °C 4.7 °C 1018.5 hPa North 6.4 km/h 6.4 km/h 61% 0.0 mm CLR
20:31 12.0 °C 4.7 °C 1018.5 hPa North 5.0 km/h 7.4 km/h 61% 0.0 mm CLR
20:36 12.1 °C 4.8 °C 1018.5 hPa North 5.0 km/h 5.8 km/h 61% 0.0 mm CLR
20:41 12.1 °C 4.8 °C 1018.5 hPa NNE 3.2 km/h 5.8 km/h 61% 0.0 mm CLR
20:46 12.1 °C 4.8 °C 1018.5 hPa North 3.2 km/h 5.6 km/h 61% 0.0 mm
20:51 12.1 °C 4.8 °C 1018.5 hPa NNE 3.9 km/h 3.9 km/h 61% 0.0 mm
20:56 12.1 °C 5.1 °C 1018.5 hPa NE 3.9 km/h 5.6 km/h 62% 0.0 mm
21:01 12.1 °C 5.1 °C 1018.5 hPa NE 3.2 km/h 3.7 km/h 62% 0.0 mm
21:06 12.0 °C 4.9 °C 1018.5 hPa NNW 3.2 km/h 5.6 km/h 62% 0.0 mm
21:11 11.9 °C 4.8 °C 1018.8 hPa NNW 3.2 km/h 3.9 km/h 62% 0.0 mm
21:16 11.9 °C 4.8 °C 1018.8 hPa NW 3.2 km/h 5.6 km/h 62% 0.0 mm
21:21 11.9 °C 5.1 °C 1018.8 hPa NW 2.9 km/h 3.9 km/h 63% 0.0 mm
21:26 11.9 °C 4.8 °C 1019.2 hPa West 2.9 km/h 7.4 km/h 62% 0.0 mm
21:31 11.9 °C 4.8 °C 1019.2 hPa WSW 3.9 km/h 7.4 km/h 62% 0.0 mm
21:36 11.8 °C 4.5 °C 1019.2 hPa West 3.9 km/h 5.6 km/h 61% 0.0 mm
21:41 11.7 °C 4.4 °C 1019.2 hPa WNW 3.9 km/h 5.6 km/h 61% 0.0 mm
21:46 11.7 °C 4.4 °C 1019.2 hPa WNW 3.9 km/h 5.6 km/h 61% 0.0 mm
21:51 11.7 °C 4.4 °C 1019.2 hPa WNW 2.9 km/h 5.6 km/h 61% 0.0 mm
21:56 11.6 °C 4.3 °C 1019.2 hPa WNW 2.9 km/h   61% 0.0 mm
22:01 11.6 °C 4.6 °C 1019.2 hPa SSW 2.3 km/h 7.6 km/h 62% 0.0 mm
22:06 11.6 °C 4.6 °C 1019.2 hPa SSW 2.3 km/h 3.7 km/h 62% 0.0 mm
22:11 11.6 °C 4.6 °C 1019.5 hPa SSW 3.9 km/h 3.9 km/h 62% 0.0 mm
22:16 11.6 °C 4.6 °C 1019.5 hPa SSW 3.9 km/h 3.9 km/h 62% 0.0 mm CLR
22:21 11.6 °C 4.6 °C 1019.5 hPa SSW 2.9 km/h 3.9 km/h 62% 0.0 mm CLR
22:26 11.6 °C 4.6 °C 1019.5 hPa SSW 2.9 km/h 3.7 km/h 62% 0.0 mm CLR
22:31 11.5 °C 4.4 °C 1019.5 hPa SSW 2.9 km/h 3.7 km/h 62% 0.0 mm CLR
22:36 11.5 °C 4.7 °C 1019.5 hPa SE 2.9 km/h 5.8 km/h 63% 0.0 mm CLR
22:41 11.3 °C 4.3 °C 1019.5 hPa SSE 3.2 km/h 7.4 km/h 62% 0.0 mm CLR
22:46 10.9 °C 3.9 °C 1019.5 hPa SSE 3.2 km/h 7.4 km/h 62% 0.0 mm CLR
22:51 10.7 °C 3.2 °C 1019.5 hPa South 6.4 km/h 9.3 km/h 60% 0.0 mm CLR
22:56 10.5 °C 2.8 °C 1019.5 hPa SSE 6.4 km/h 8.4 km/h 59% 0.0 mm CLR
23:01 10.4 °C 2.5 °C 1019.5 hPa SSE 6.4 km/h 11.1 km/h 58% 0.0 mm CLR
23:06 10.3 °C 1.9 °C 1019.5 hPa SSE 6.4 km/h 9.3 km/h 56% 0.0 mm CLR
23:11 10.2 °C 1.6 °C 1019.5 hPa SSW 6.9 km/h 11.1 km/h 55% 0.0 mm CLR
23:13 10.1 °C 1.2 °C 1019.5 hPa South 6.9 km/h 9.3 km/h 54% 0.0 mm CLR
23:18 10.1 °C 0.9 °C 1019.5 hPa South 7.6 km/h 10.0 km/h 53% 0.0 mm CLR
23:19 10.1 °C 0.9 °C 1019.5 hPa South 7.6 km/h 9.3 km/h 53% 0.0 mm FEW
23:24 10.1 °C 0.9 °C 1019.5 hPa South 7.6 km/h 11.1 km/h 53% 0.0 mm FEW
23:29 10.1 °C 0.9 °C 1019.5 hPa WSW 6.9 km/h 8.7 km/h 53% 0.0 mm CLR
23:34 10.2 °C 1.3 °C 1019.5 hPa SW 6.9 km/h 7.4 km/h 54% 0.0 mm FEW
23:39 10.2 °C 1.3 °C 1019.5 hPa WSW 5.8 km/h 7.4 km/h 54% 0.0 mm FEW
23:44 10.3 °C 1.4 °C 1019.5 hPa SW 5.8 km/h 7.4 km/h 54% 0.0 mm CLR
23:49 10.3 °C 1.4 °C 1019.5 hPa SW 4.7 km/h 4.7 km/h 54% 0.0 mm CLR
23:54 10.2 °C 1.3 °C 1019.9 hPa SW 4.7 km/h 4.7 km/h 54% 0.0 mm CLR
23:59 10.2 °C 1.6 °C 1019.9 hPa ESE 2.3 km/h 4.7 km/h 55% 0.0 mm CLR
Murcia-Puente Tocinos, España
Compliments of Weather Underground - 2.75 mb

La estación de MeteoMurcia.com, publica sus datos en los siguientes proyectos:

Meteoclimatic www.awekas.at

W3Counter
Web Analytics